DW6706 Weather Reports


Display with metric or nautical units.
time (UTC)temp
F
wind
direction
speed
MPH
gust
MPH
rain 1hr
in
rain 24hr
in
rain mn
in
humidity
%
barometer
mb
20260502065532 55 292 0.0 0.0 0.00 3.73 0.00 94 1015.8
20260502064532 55 292 0.0 1.0 0.00 3.73 0.00 94 1015.7
20260502062532 55 292 0.0 1.0 0.00 3.73 0.00 94 1015.3
20260502054532 55 275 0.0 2.0 0.00 3.76 0.00 94 1015.5
20260502053532 56 277 1.0 3.0 0.00 3.76 0.00 94 1015.4
20260502052532 56 233 0.0 2.0 0.00 3.77 0.00 94 1015.4
20260502051532 56 233 1.0 6.0 0.00 3.77 0.00 94 1015.3
20260502050532 56 107 0.0 4.0 0.00 3.77 0.00 95 1015.3
20260502045532 56 267 0.0 2.0 0.00 3.77 0.00 95 1015.3
20260502043532 56 294 0.0 5.0 0.00 3.77 3.77 95 1015.2
20260502042532 56 227 1.0 6.0 0.00 3.77 3.77 94 1015.1
20260502041531 56 176 0.0 4.0 0.00 3.77 3.77 95 1015.0
20260502040532 56 315 1.0 5.0 0.00 3.77 3.77 95 1014.9
20260502035532 56 154 0.0 2.0 0.00 3.77 3.77 95 1015.1
20260502033532 56 246 0.0 2.0 0.00 3.77 3.77 95 1015.2
20260502032532 56 246 1.0 6.0 0.00 3.77 3.77 95 1015.2
20260502031532 56 84 1.0 1.0 0.00 3.77 3.77 95 1014.8
20260502030531 56 84 0.0 2.0 0.01 3.77 3.77 95 1014.7
20260502025532 56 84 0.0 2.0 0.01 3.77 3.77 94 1014.5
20260502022531 56 253 0.0 5.0 0.04 3.77 3.77 94 1013.3
20260502021532 57 158 1.0 4.0 0.05 3.77 3.77 94 1013.5
20260502020531 57 82 1.0 2.0 0.06 3.76 3.76 94 1013.4
20260502015531 57 246 0.0 2.0 0.07 3.76 3.76 94 1013.4
20260502014532 57 115 0.0 2.0 0.08 3.75 3.75 94 1013.4
20260502013531 57 238 1.0 5.0 0.09 3.74 3.74 94 1013.0
20260502012531 58 98 2.0 5.0 0.10 3.73 3.73 94 1012.7
20260502011531 58 113 1.0 2.0 0.11 3.72 3.72 94 1012.8
20260502010532 58 284 1.0 8.0 0.12 3.70 3.70 94 1013.5
20260502005531 58 231 0.0 7.0 0.14 3.69 3.69 94 1013.1
20260502004532 59 267 1.0 6.0 0.14 3.67 3.67 94 1012.3
20260502003531 59 239 0.0 3.0 0.15 3.65 3.65 95 1011.8
20260502002532 60 115 1.0 2.0 0.15 3.63 3.63 95 1011.7
20260502000532 60 271 2.0 4.0 0.15 3.58 3.58 95 1012.5
20260501235531 60 266 1.0 5.0 0.15 3.55 3.55 95 1012.0
20260501234531 60 297 0.0 1.0 0.16 3.53 3.53 95 1011.5
20260501233531 60 297 1.0 2.0 0.15 3.50 3.50 95 1012.4
20260501232532 60 243 0.0 2.0 0.13 3.48 3.48 95 1011.3
20260501231531 60 242 0.0 3.0 0.11 3.45 3.45 95 1011.0
20260501230532 60 70 0.0 2.0 0.10 3.43 3.43 95 1010.3
20260501225532 60 70 2.0 2.0 0.09 3.40 3.40 95 1010.6
20260501224531 60 300 0.0 4.0 0.07 3.37 3.37 95 1010.8
20260501222531 61 272 1.0 6.0 0.08 3.35 3.35 95 1009.3
20260501221531 61 296 1.0 3.0 0.09 3.34 3.34 95 1008.7
20260501220531 61 170 0.0 4.0 0.09 3.33 3.33 95 1009.6
20260501215532 61 94 0.0 2.0 0.09 3.31 3.31 95 1010.0
20260501214531 61 94 0.0 5.0 0.09 3.30 3.30 95 1010.6
20260501213531 61 271 0.0 2.0 0.08 3.28 3.28 95 1010.7
20260501212531 61 259 2.0 2.0 0.09 3.27 3.27 95 1010.6
20260501211531 61 264 1.0 4.0 0.08 3.25 3.25 95 1010.4
20260501210531 61 246 2.0 4.0 0.09 3.24 3.24 95 1010.3
20260501205531 61 231 1.0 4.0 0.09 3.22 3.22 95 1009.7
20260501204531 62 151 0.0 5.0 0.08 3.21 3.21 95 1008.7
20260501203531 62 261 5.0 7.0 0.08 3.20 3.20 95 1009.8
20260501202531 62 246 1.0 7.0 0.07 3.18 3.18 95 1009.7
20260501201531 62 282 0.0 5.0 0.06 3.17 3.17 95 1008.6
20260501200531 63 94 0.0 2.0 0.04 3.15 3.15 95 1008.7
20260501195531 63 95 1.0 4.0 0.03 3.13 3.13 95 1009.9
20260501194531 63 240 0.0 2.0 0.03 3.13 3.13 95 1010.0
20260501193531 63 263 0.0 2.0 0.02 3.12 3.12 95 1009.3
20260501191531 63 73 0.0 2.0 0.01 3.11 3.11 95 1009.3
20260501185531 63 186 0.0 2.0 0.02 3.10 3.10 95 1008.9
20260501184531 63 71 0.0 2.0 0.03 3.10 3.10 95 1008.2
20260501183531 63 188 0.0 2.0 0.05 3.10 3.10 95 1009.1
20260501182531 63 188 1.0 2.0 0.06 3.10 3.10 95 1009.0
20260501174531 63 127 0.0 2.0 0.07 3.07 3.07 95 1008.9
20260501173531 63 254 0.0 2.0 0.07 3.05 3.05 95 1009.5
20260501172531 63 248 1.0 2.0 0.09 3.04 3.04 95 1010.2
20260501171531 63 213 0.0 2.0 0.12 3.03 3.03 95 1010.6
20260501170531 63 212 1.0 2.0 0.16 3.03 3.03 95 1010.2
20260501165531 63 191 0.0 3.0 0.18 3.01 3.01 95 1010.6
20260501164531 63 19 0.0 2.0 0.22 3.00 3.00 95 1010.4
20260501161531 62 278 1.0 5.0 0.25 2.91 2.91 95 1012.4
20260501160531 62 231 1.0 6.0 0.22 2.87 2.87 95 1011.9
20260501155531 62 241 1.0 5.0 0.18 2.83 2.83 95 1011.8
20260501154531 62 95 1.0 6.0 0.15 2.78 2.78 95 1012.2
20260501153531 63 244 0.0 2.0 0.16 2.74 2.74 95 1012.7
20260501152531 63 242 1.0 3.0 0.17 2.69 2.69 95 1011.8
20260501151531 63 248 1.0 2.0 0.22 2.66 2.66 95 1012.0
20260501150531 62 246 0.0 5.0 0.30 2.65 2.65 95 1011.5
20260501145531 62 82 0.0 2.0 0.40 2.65 2.65 95 1010.8